Вернуться в каталог

SL-8 R/B

АктивенPO
NORAD 18710·ROCKET BODY·🇷🇺 Russia

Запущен Dec 23, 1987 с Plesetsk Cosmodrome

Loading…

Ближайшие Пролёты (ближайшие 24 часа)

TLE

СвежийSource: Space-Track

Эпоха: Sep 14, 2026, 22:34 UTC

1 18710U 87106B   26257.94067211  .00000043  00000-0  28515-4 0  9993
2 18710  82.9152 329.5056 0023471  21.2610 157.8735 13.76308020944480

Отслеживайте SL-8 R/B в реальном времени с AllMySat

Download on the App Store